EHI
0 0 0 0 1 3 4 4 5 4 3 3 1 0 0 0 1 2 2 1 1 0 0 0 0 1 2 3 4 4 3 3 2 1 0 0 0 0 0 0 0 1 3
0 0 0 0 1 3 4 4 5 4 3 3 2 1 0 0 1 2 2 1 0 0 0 0 0 0 1 2 3 3 3 3 3 2 1 0 0 0 0 0 0 1 1
0 0 0 1 1 2 3 4 4 4 3 3 2 1 0 0 1 1 1 0 0 0 0 0 0 0 0 1 1 1 3 4 4 2 1 0 0 0 0 0 0 1 1
0 0 0 0 0 1 2 3 3 3 3 3 2 1 0 0 0 1 1 0 0 0 0 0 0 0 1 1 1 1 3 5 4 2 1 0 0 0 0 0 0 1 2
0 0 0 0 0 0 1 1 2 2 2 2 1 0 1 1 1 1 1 0 0 0 0 0 0 0 1 1 1 0 2 3 3 1 0 0 0 0 0 0 1 1 1
0 0 0 0 0 0 1 1 2 2 2 1 0 0 1 2 2 1 0 0 1 0 0 1 1 1 0 0 0 0 0 1 1 0 0 0 0 0 0 0 1 1 0
0 0 0 0 1 1 2 3 3 3 2 0 0 0 1 1 1 1 0 0 0 0 1 2 3 2 1 1 1 1 1 0 0 0 0 0 0 0 0 0 1 0 0
0 0 0 0 1 2 3 3 3 3 1 0 0 0 0 0 1 1 1 1 1 1 1 3 4 3 3 3 4 4 3 1 1 1 0 0 0 0 0 0 1 0 0
0 0 0 0 1 2 3 3 3 2 1 0 0 0 0 1 2 2 2 2 2 2 3 3 4 4 3 4 6 7 5 3 2 2 1 0 0 0 0 0 0 0 0
0 0 0 0 0 1 1 2 2 1 0 0 0 0 0 1 2 2 3 3 3 3 3 4 5 4 3 4 6 8 6 4 3 3 2 0 0 0 0 0 0 0 0
0 0 0 0 0 0 0 1 1 0 0 0 0 0 0 1 1 1 1 2 3 3 4 5 6 4 3 3 4 6 6 5 3 2 1 0 1 1 1 1 1 1 2
0 0 0 0 0 0 0 0 0 0 0 0 0 0 0 0 0 0 0 1 1 2 3 5 5 4 2 1 1 2 3 3 2 1 0 0 1 2 2 2 3 4 4
0 0 0 0 0 0 0 0 0 0 0 0 0 0 0 0 0 0 0 0 0 1 1 3 3 2 0 0 0 1 1 1 1 0 0 0 0 1 2 3 5 6 5
0 0 0 0 0 0 0 0 0 0 0 0 0 0 0 0 0 0 0 1 1 0 0 1 1 1 0 0 0 0 0 0 0 0 0 0 0 1 2 4 5 6 6
0 0 0 0 0 0 0 0 0 0 0 0 0 0 0 0 0 0 1 2 1 0 0 0 0 1 0 0 0 0 0 0 0 0 0 0 0 1 2 3 4 4 5
0 0 0 0 0 0 0 0 0 0 0 0 0 0 0 0 0 1 2 2 1 0 0 0 0 0 0 0 0 0 0 0 0 0 0 0 0 1 2 3 3 4 4
1 0 0 0 0 0 0 0 0 0 0 0 0 0 0 0 0 1 2 2 1 0 0 0 0 0 0 0 0 0 0 0 0 0 0 0 0 0 1 1 2 3 3
2 1 0 0 0 0 0 0 0 0 0 0 0 0 0 0 0 0 1 1 0 0 0 0 0 0 0 0 1 0 0 0 0 0 0 0 0 0 0 0 1 2 2
2 1 0 0 0 0 0 0 0 0 0 0 0 0 0 1 1 1 1 0 0 0 0 0 0 0 1 1 1 0 0 0 0 0 0 0 0 0 0 0 1 2 3
1 1 1 0 0 0 0 0 0 0 0 0 0 0 0 1 2 3 3 2 2 2 1 1 2 2 2 2 1 1 0 0 0 0 0 0 0 0 0 0 1 3 4
3 3 2 1 0 0 0 0 0 0 0 0 0 0 0 1 2 3 4 4 4 3 3 3 3 3 4 3 3 2 1 0 0 0 0 0 0 0 0 0 0 2 3
5 4 2 1 0 0 0 0 0 0 0 0 0 0 0 0 1 3 4 4 4 4 3 3 4 4 4 3 3 3 2 1 1 1 0 0 1 1 1 0 0 0 1
4 3 1 0 1 1 1 1 0 0 0 0 0 0 0 0 1 3 4 4 5 6 5 5 6 6 5 5 4 3 3 3 2 2 1 1 1 2 1 0 0 1 1
3 2 1 1 2 3 4 4 2 0 0 0 0 0 0 0 2 4 5 6 8 8 8 8 9 9 8 8 6 4 3 3 3 3 3 1 1 1 1 0 1 2 2
3 2 2 2 3 5 8 8 5 2 1 0 0 1 1 0 1 2 4 7 9 10 10 10 10 10 10 9 8 6 5 4 4 4 4 2 1 0 0 0 1 1 2
4 3 2 3 4 5 9 10 7 4 2 1 1 2 2 1 0 0 2 5 9 10 10 10 10 10 10 10 9 8 7 6 4 4 4 3 1 0 0 0 1 1 1
Wind_Speed
2 2 3 4 5 7 7 8 9 10 11 11 11 11 11 12 11 11 11 11 11 11 11 11 12 11 11 12 12 12 12 12 12 12 11 11 11 11 11 11 10 8 11
1 1 4 5 5 6 7 8 8 9 9 10 10 11 11 11 11 10 11 10 10 10 10 11 11 11 11 11 11 11 11 11 11 11 10 9 10 10 10 10 10 7 11
1 1 3 5 5 6 7 7 8 8 9 9 9 9 10 10 10 10 10 10 9 10 10 9 10 10 10 11 11 11 11 11 11 10 9 5 6 9 9 10 10 10 10
1 1 2 5 6 6 7 7 7 7 8 8 8 8 9 9 9 9 9 9 9 9 9 9 9 9 10 10 10 11 11 11 10 10 5 4 5 9 9 9 10 10 10
2 1 2 5 5 5 6 6 7 7 7 7 7 7 7 8 8 8 8 8 8 8 8 9 8 8 9 10 10 11 11 11 10 7 4 4 4 8 9 9 9 9 10
1 1 1 4 4 5 5 6 6 6 6 6 6 6 6 7 7 7 7 7 7 7 7 8 8 8 8 9 9 10 11 10 8 5 4 3 4 7 9 9 9 9 9
1 0 1 3 3 4 4 5 6 5 5 5 5 5 5 6 5 6 7 7 7 7 7 7 7 8 7 8 8 9 10 10 6 4 4 3 4 7 8 8 8 8 9
2 0 1 2 2 3 4 5 5 5 4 5 5 5 4 5 4 5 6 6 6 6 6 7 7 7 7 8 8 8 9 9 6 5 4 3 5 7 7 7 7 7 8
2 1 2 1 0 2 3 4 4 4 4 4 4 4 4 4 3 4 4 5 5 5 5 6 6 7 7 7 7 8 8 8 5 4 5 3 6 7 6 6 5 6 6
2 1 1 2 1 1 0 3 4 4 4 3 3 3 3 2 2 3 3 3 4 4 5 5 5 7 7 7 7 8 8 7 4 4 3 4 7 8 7 6 5 5 6
1 1 1 1 1 1 1 1 2 3 2 2 2 2 2 1 1 1 2 3 4 5 5 5 5 6 6 6 7 7 7 3 4 3 3 5 7 7 7 6 6 6 6
1 1 1 1 1 1 1 1 1 2 1 1 1 1 1 1 0 1 1 1 2 4 5 5 5 5 4 2 4 6 2 4 3 3 3 7 7 7 6 6 6 6 7
1 1 0 0 0 1 1 2 2 1 1 1 1 1 1 1 1 1 1 0 1 1 1 2 2 2 2 2 2 2 3 3 2 2 3 7 6 7 6 6 6 6 6
0 1 0 0 1 1 1 1 1 1 1 1 1 1 1 1 1 1 1 1 1 1 1 1 1 2 3 3 3 3 3 2 2 2 3 7 6 7 6 6 6 6 6
0 0 0 1 1 1 1 1 1 1 1 1 1 0 1 1 1 1 1 1 1 1 1 1 2 2 3 3 3 3 3 3 3 2 2 6 6 6 6 6 6 6 6
1 1 0 1 1 2 1 1 1 1 1 1 1 0 1 1 1 1 1 1 1 1 1 1 2 2 2 2 2 2 3 3 3 2 2 3 6 6 6 6 6 6 7
2 1 1 1 2 2 2 1 1 1 1 1 0 0 1 1 1 1 1 1 1 1 2 2 2 2 2 2 2 1 2 2 2 2 2 2 2 5 6 6 6 7 7
2 1 1 2 2 2 2 1 1 1 1 0 0 0 1 1 2 2 1 1 1 1 2 2 2 2 2 2 1 0 1 1 2 2 2 2 2 2 4 6 5 6 7
3 2 1 1 2 2 2 1 1 1 1 0 0 0 0 1 2 2 2 1 1 1 1 2 2 2 2 1 1 0 1 1 2 2 3 3 3 3 3 4 6 6 7
2 2 2 2 2 2 2 2 1 1 1 0 0 0 1 1 2 2 2 1 2 2 1 1 2 1 1 1 0 1 1 1 1 2 3 3 3 4 4 4 4 5 7
2 2 2 2 2 2 1 1 1 0 0 1 0 0 1 1 2 2 2 2 2 2 2 2 2 2 1 1 1 1 2 1 1 2 2 2 3 3 3 4 3 3 3
3 3 2 2 3 3 2 1 1 1 0 1 1 1 1 1 2 2 2 2 2 2 1 1 2 1 0 1 1 0 2 2 2 1 1 2 2 2 2 3 3 3 3
4 4 4 3 3 3 2 2 2 2 2 2 2 1 1 0 1 2 2 2 2 2 2 2 2 2 1 0 1 2 1 1 2 1 1 1 1 2 2 2 3 3 3
6 4 4 3 3 2 3 3 3 2 1 0 0 1 1 1 0 1 2 2 2 1 2 3 2 2 2 1 1 1 2 2 1 2 2 1 2 2 3 3 3 3 3
6 5 4 3 3 2 3 4 3 2 1 0 1 1 1 1 1 0 1 2 2 2 2 2 2 2 2 2 1 1 1 1 2 2 2 2 2 2 2 3 2 2 3
4 4 4 4 3 3 4 4 4 3 2 1 0 0 1 1 1 1 1 1 2 2 3 3 2 3 2 3 2 2 2 2 2 2 2 2 2 2 2 2 2 2 2
Wind_Direction
258 262 170 125 115 111 109 108 112 117 122 128 131 133 137 137 137 138 140 143 144 146 148 149 149 148 148 148 146 145 144 143 142 143 144 145 145 145 145 144 142 138 138
204 217 158 134 124 120 115 112 112 116 120 125 129 132 137 141 143 142 140 142 146 148 150 152 151 151 151 150 150 148 146 144 144 145 146 146 146 148 150 149 149 148 147
124 178 143 133 128 125 122 118 116 116 119 122 127 132 138 141 142 144 144 146 147 150 151 152 154 155 156 156 155 153 151 150 149 149 149 146 152 157 157 158 157 155 151
123 108 132 135 131 127 124 124 122 119 120 122 126 131 139 142 144 148 149 150 150 153 155 156 158 160 161 162 162 160 158 157 156 156 149 153 160 164 164 162 162 161 156
84 80 143 136 132 130 130 130 129 126 128 129 128 129 137 143 147 154 155 156 156 160 164 165 164 165 167 169 168 167 165 164 164 156 146 154 160 169 169 167 166 162 159
80 60 165 138 133 132 135 139 137 135 135 134 133 132 135 144 151 155 158 159 162 168 172 174 170 169 168 168 168 169 170 167 160 145 142 147 163 174 172 171 168 166 164
148 155 181 149 147 140 141 144 145 142 139 140 137 133 133 137 145 154 157 164 168 173 177 179 176 170 168 164 163 169 170 165 150 145 146 151 173 176 176 173 170 169 166
139 87 3 167 160 153 152 150 145 143 139 139 134 132 136 140 148 158 161 167 170 172 176 178 180 174 171 165 164 167 170 165 157 160 158 164 175 178 175 170 166 166 168
80 48 354 349 311 175 162 158 158 147 141 142 142 141 138 144 156 158 162 166 174 176 178 177 179 175 170 168 169 170 171 168 148 159 172 174 181 179 172 162 167 165 170
48 21 343 350 353 331 221 172 169 155 148 143 144 144 135 138 153 168 169 176 177 172 171 171 168 167 169 168 173 175 171 158 152 160 166 180 182 180 177 175 176 173 178
12 338 342 356 355 339 311 179 170 157 139 131 128 123 108 71 85 151 179 187 180 177 174 169 162 164 168 166 169 169 160 144 147 155 170 183 179 180 180 179 184 184 183
275 286 337 359 1 359 359 50 90 111 94 83 78 78 55 55 49 118 167 192 169 177 176 173 168 166 163 153 164 161 144 143 151 165 181 183 182 185 188 189 195 191 192
247 282 235 202 74 51 31 61 69 78 77 77 83 76 71 62 52 42 43 38 98 139 143 157 152 143 140 142 142 142 141 146 159 177 193 190 189 193 195 198 204 202 199
181 288 306 140 125 124 92 83 90 91 83 79 77 88 97 84 67 62 72 53 60 79 86 100 123 137 137 142 147 146 149 153 166 182 198 195 194 200 200 201 205 206 202
188 256 113 131 151 130 109 109 101 101 97 82 52 64 127 128 122 87 71 71 77 91 105 111 126 137 139 143 153 157 160 163 175 189 206 201 197 201 204 206 211 210 207
206 224 188 148 140 116 119 122 113 97 102 83 82 86 120 131 128 112 84 73 79 91 99 108 114 124 134 139 153 160 168 177 187 196 206 209 206 205 210 214 220 218 212
206 195 174 147 117 119 125 127 115 110 110 113 116 99 110 125 122 118 115 108 110 109 103 97 93 92 111 124 134 160 183 195 196 206 209 218 224 218 216 218 219 221 219
186 179 186 134 121 130 125 122 108 114 126 150 138 95 118 137 136 132 133 127 110 102 107 107 109 105 103 110 116 168 197 203 214 219 222 223 229 234 230 229 229 228 230
180 172 161 119 123 128 118 99 96 98 98 101 106 103 178 145 141 138 134 133 115 104 104 124 108 122 121 115 115 195 236 219 222 221 224 228 226 227 231 235 240 241 239
168 158 149 120 117 113 97 78 63 54 37 38 178 196 149 125 123 127 124 123 118 114 104 103 107 101 118 131 69 339 288 252 227 223 230 233 228 226 226 231 241 247 245
153 157 149 139 146 125 104 106 102 41 352 11 39 116 117 118 120 125 136 131 132 137 150 141 129 121 118 126 81 347 321 277 245 236 233 233 236 236 228 227 235 242 250
182 182 166 177 174 164 158 144 132 112 86 64 30 53 72 116 138 142 151 156 149 140 144 151 152 140 162 141 144 87 341 342 337 285 240 234 242 242 245 240 231 232 241
192 193 190 188 180 177 156 107 79 59 41 36 27 24 22 83 127 137 149 159 159 164 185 198 184 177 198 210 173 163 165 258 314 318 272 253 258 250 252 251 238 234 229
201 190 185 181 174 171 150 137 135 133 154 259 311 350 16 37 82 152 158 163 182 195 204 212 194 193 183 215 218 204 199 187 207 299 315 303 274 257 256 251 244 235 226
188 183 182 171 169 162 155 156 149 159 187 146 62 31 17 18 30 66 164 173 193 212 224 230 212 194 195 205 205 195 183 191 204 220 277 304 303 273 258 251 246 241 233
176 174 171 167 176 166 161 162 164 171 174 148 120 48 354 1 6 354 204 201 205 213 220 225 221 213 214 216 215 202 192 195 198 202 235 266 281 284 270 249 243 240 236